QPF
0.02 0.01 0.00 0.00 0.00 0.00 0.01 0.02 0.04 0.07 0.11 0.14 0.15 0.10 0.09 0.08 0.07 0.05 0.04 0.04 0.05 0.07 0.07 0.07 0.07 0.07 0.07 0.06 0.06 0.06 0.07 0.07 0.07 0.05 0.04 0.03 0.03 0.03 0.03 0.02 0.01 0.01 0.00 0.00
0.02 0.00 0.00 0.01 0.00 0.00 0.00 0.01 0.02 0.05 0.10 0.10 0.11 0.09 0.06 0.04 0.04 0.05 0.06 0.06 0.07 0.08 0.08 0.08 0.08 0.08 0.08 0.08 0.08 0.06 0.07 0.08 0.07 0.06 0.04 0.03 0.02 0.02 0.02 0.01 0.01 0.01 0.00 0.00
0.08 0.01 0.03 0.05 0.01 0.01 0.00 0.01 0.02 0.06 0.08 0.08 0.07 0.07 0.05 0.04 0.04 0.06 0.08 0.09 0.08 0.08 0.09 0.09 0.10 0.10 0.10 0.09 0.08 0.06 0.05 0.06 0.06 0.06 0.06 0.05 0.03 0.02 0.02 0.01 0.01 0.01 0.01 0.00
0.09 0.08 0.12 0.06 0.01 0.00 0.00 0.01 0.02 0.05 0.06 0.06 0.05 0.05 0.07 0.08 0.08 0.10 0.10 0.10 0.09 0.09 0.10 0.09 0.08 0.08 0.08 0.08 0.07 0.06 0.05 0.05 0.04 0.04 0.04 0.04 0.03 0.03 0.02 0.02 0.02 0.02 0.01 0.01
0.11 0.14 0.12 0.08 0.02 0.01 0.02 0.04 0.03 0.04 0.04 0.03 0.03 0.04 0.08 0.10 0.11 0.11 0.11 0.12 0.12 0.10 0.09 0.08 0.07 0.07 0.07 0.07 0.08 0.07 0.07 0.06 0.04 0.03 0.03 0.04 0.03 0.03 0.03 0.03 0.03 0.03 0.02 0.03
0.11 0.16 0.17 0.12 0.03 0.01 0.03 0.08 0.04 0.03 0.02 0.02 0.03 0.05 0.06 0.07 0.07 0.08 0.10 0.10 0.10 0.10 0.09 0.07 0.06 0.05 0.05 0.05 0.05 0.05 0.04 0.04 0.03 0.03 0.04 0.04 0.04 0.03 0.03 0.03 0.03 0.02 0.02 0.02
0.10 0.12 0.13 0.08 0.02 0.01 0.07 0.12 0.04 0.03 0.04 0.05 0.09 0.09 0.05 0.03 0.06 0.08 0.08 0.08 0.08 0.09 0.08 0.07 0.05 0.05 0.05 0.04 0.04 0.03 0.02 0.02 0.02 0.03 0.03 0.03 0.03 0.04 0.04 0.03 0.02 0.02 0.02 0.02
0.06 0.11 0.13 0.03 0.01 0.03 0.05 0.02 0.01 0.03 0.04 0.05 0.05 0.04 0.03 0.03 0.04 0.06 0.07 0.07 0.07 0.06 0.05 0.05 0.04 0.05 0.05 0.05 0.03 0.02 0.02 0.02 0.02 0.02 0.01 0.02 0.03 0.04 0.03 0.03 0.03 0.02 0.03 0.03
0.05 0.09 0.05 0.01 0.01 0.01 0.01 0.01 0.01 0.02 0.02 0.02 0.01 0.01 0.03 0.05 0.05 0.06 0.06 0.06 0.06 0.05 0.04 0.06 0.06 0.06 0.06 0.04 0.02 0.01 0.02 0.02 0.02 0.01 0.01 0.01 0.02 0.02 0.01 0.02 0.02 0.02 0.02 0.02
0.01 0.01 0.00 0.00 0.01 0.01 0.02 0.02 0.01 0.01 0.01 0.01 0.00 0.01 0.02 0.04 0.06 0.07 0.07 0.06 0.05 0.05 0.05 0.06 0.07 0.06 0.05 0.03 0.02 0.02 0.03 0.03 0.03 0.01 0.01 0.01 0.01 0.00 0.00 0.01 0.01 0.01 0.01 0.01
0.02 0.01 0.00 0.00 0.01 0.02 0.02 0.01 0.01 0.01 0.01 0.00 0.00 0.01 0.02 0.04 0.05 0.07 0.08 0.07 0.07 0.07 0.06 0.05 0.05 0.04 0.03 0.04 0.03 0.04 0.04 0.04 0.02 0.01 0.01 0.02 0.01 0.00 0.00 0.00 0.00 0.01 0.01 0.01
0.01 0.01 0.00 0.01 0.01 0.02 0.01 0.01 0.01 0.01 0.01 0.01 0.01 0.01 0.03 0.05 0.05 0.06 0.07 0.07 0.07 0.06 0.06 0.04 0.02 0.03 0.03 0.03 0.03 0.04 0.03 0.02 0.01 0.01 0.01 0.01 0.01 0.00 0.00 0.00 0.00 0.00 0.00 0.00
0.00 0.00 0.00 0.00 0.01 0.01 0.01 0.01 0.01 0.01 0.02 0.02 0.01 0.01 0.02 0.03 0.03 0.04 0.04 0.05 0.05 0.05 0.04 0.04 0.03 0.03 0.03 0.02 0.02 0.02 0.02 0.02 0.01 0.00 0.00 0.00 0.01 0.01 0.01 0.00 0.00 0.00 0.00 0.00
0.00 0.00 0.01 0.01 0.01 0.01 0.02 0.01 0.02 0.02 0.02 0.01 0.01 0.01 0.01 0.02 0.02 0.03 0.03 0.04 0.04 0.04 0.04 0.03 0.02 0.02 0.02 0.01 0.01 0.01 0.01 0.00 0.00 0.01 0.00 0.00 0.00 0.01 0.01 0.02 0.02 0.01 0.00 0.00
0.00 0.00 0.00 0.01 0.01 0.01 0.01 0.01 0.02 0.02 0.01 0.01 0.01 0.01 0.01 0.01 0.02 0.02 0.03 0.03 0.03 0.03 0.03 0.03 0.02 0.02 0.01 0.00 0.00 0.00 0.00 0.00 0.00 0.00 0.00 0.00 0.00 0.00 0.00 0.01 0.03 0.03 0.02 0.00
0.00 0.00 0.00 0.00 0.00 0.01 0.01 0.01 0.01 0.01 0.01 0.01 0.01 0.01 0.01 0.01 0.02 0.02 0.02 0.02 0.02 0.02 0.02 0.02 0.02 0.01 0.01 0.00 0.00 0.00 0.00 0.00 0.00 0.01 0.00 0.00 0.00 0.00 0.00 0.00 0.01 0.02 0.02 0.01
0.00 0.00 0.00 0.00 0.00 0.00 0.01 0.01 0.00 0.00 0.01 0.01 0.01 0.01 0.01 0.01 0.02 0.02 0.02 0.02 0.02 0.02 0.01 0.01 0.01 0.00 0.00 0.00 0.00 0.00 0.00 0.00 0.00 0.00 0.00 0.00 0.00 0.00 0.00 0.00 0.00 0.01 0.01 0.00
0.00 0.00 0.00 0.00 0.00 0.00 0.00 0.00 0.00 0.00 0.01 0.01 0.01 0.01 0.01 0.01 0.01 0.01 0.01 0.01 0.01 0.01 0.01 0.00 0.00 0.00 0.00 0.00 0.00 0.00 0.00 0.00 0.00 0.00 0.00 0.00 0.00 0.00 0.00 0.00 0.00 0.00 0.00 0.00
0.00 0.00 0.00 0.00 0.00 0.00 0.00 0.00 0.00 0.00 0.00 0.00 0.00 0.00 0.00 0.00 0.00 0.00 0.00 0.00 0.00 0.00 0.00 0.00 0.00 0.00 0.00 0.00 0.00 0.00 0.00 0.00 0.00 0.00 0.00 0.00 0.00 0.00 0.00 0.00 0.00 0.01 0.00 0.00
0.00 0.00 0.00 0.00 0.00 0.00 0.00 0.00 0.00 0.00 0.00 0.00 0.00 0.00 0.00 0.00 0.00 0.00 0.00 0.00 0.00 0.00 0.00 0.00 0.00 0.00 0.00 0.00 0.00 0.00 0.00 0.00 0.00 0.00 0.00 0.00 0.00 0.00 0.00 0.00 0.00 0.00 0.00 0.00
0.00 0.00 0.00 0.00 0.00 0.00 0.00 0.00 0.00 0.00 0.00 0.00 0.00 0.00 0.00 0.00 0.00 0.00 0.00 0.00 0.00 0.00 0.00 0.00 0.00 0.00 0.00 0.00 0.00 0.00 0.00 0.00 0.00 0.00 0.00 0.00 0.00 0.00 0.00 0.00 0.00 0.00 0.00 0.00
0.00 0.00 0.00 0.00 0.00 0.00 0.00 0.00 0.00 0.00 0.00 0.00 0.00 0.00 0.00 0.00 0.00 0.00 0.00 0.00 0.00 0.00 0.00 0.00 0.00 0.00 0.00 0.00 0.00 0.00 0.00 0.00 0.00 0.00 0.00 0.00 0.00 0.00 0.00 0.00 0.00 0.00 0.00 0.00
0.00 0.00 0.00 0.00 0.00 0.00 0.00 0.00 0.00 0.00 0.00 0.00 0.00 0.00 0.00 0.00 0.00 0.00 0.00 0.00 0.00 0.00 0.00 0.00 0.00 0.00 0.00 0.00 0.00 0.00 0.00 0.00 0.00 0.00 0.00 0.00 0.00 0.00 0.00 0.00 0.00 0.00 0.00 0.00
0.00 0.00 0.00 0.00 0.00 0.00 0.00 0.00 0.00 0.00 0.00 0.00 0.00 0.00 0.00 0.00 0.00 0.00 0.00 0.00 0.00 0.00 0.00 0.00 0.00 0.00 0.00 0.00 0.00 0.00 0.00 0.00 0.00 0.00 0.00 0.00 0.00 0.00 0.00 0.00 0.00 0.00 0.00 0.00
0.00 0.00 0.00 0.00 0.00 0.00 0.00 0.00 0.00 0.00 0.00 0.00 0.00 0.00 0.00 0.00 0.00 0.00 0.00 0.00 0.00 0.00 0.00 0.00 0.00 0.00 0.00 0.00 0.00 0.00 0.00 0.00 0.00 0.00 0.00 0.00 0.00 0.00 0.00 0.00 0.00 0.00 0.00 0.00
0.00 0.00 0.00 0.00 0.00 0.00 0.00 0.00 0.00 0.00 0.00 0.00 0.00 0.00 0.00 0.00 0.00 0.00 0.00 0.00 0.00 0.00 0.00 0.00 0.00 0.00 0.00 0.00 0.00 0.00 0.00 0.00 0.00 0.00 0.00 0.00 0.00 0.00 0.00 0.00 0.00 0.00 0.00 0.00
0.00 0.00 0.00 0.00 0.00 0.00 0.00 0.00 0.00 0.00 0.00 0.00 0.00 0.00 0.00 0.00 0.00 0.00 0.00 0.00 0.00 0.00 0.00 0.00 0.00 0.00 0.00 0.00 0.00 0.00 0.00 0.00 0.00 0.00 0.00 0.00 0.00 0.00 0.00 0.00 0.00 0.00 0.00 0.00
MSLP
1007.13 1007.12 1007.12 1007.14 1007.19 1007.30 1007.46 1007.70 1008.00 1008.36 1008.78 1009.25 1009.77 1010.31 1010.88 1011.46 1012.05 1012.65 1013.25 1013.86 1014.46 1015.07 1015.68 1016.27 1016.83 1017.35 1017.81 1018.20 1018.51 1018.74 1018.92 1019.07 1019.22 1019.39 1019.61 1019.90 1020.25 1020.65 1021.07 1021.48 1021.85 1022.15 1022.36 1022.49
1007.27 1007.20 1007.07 1006.93 1006.82 1006.77 1006.83 1007.03 1007.36 1007.84 1008.45 1009.16 1009.94 1010.75 1011.56 1012.34 1013.07 1013.75 1014.39 1014.98 1015.56 1016.12 1016.68 1017.24 1017.79 1018.31 1018.78 1019.19 1019.51 1019.76 1019.94 1020.07 1020.17 1020.29 1020.45 1020.66 1020.94 1021.27 1021.63 1021.99 1022.32 1022.60 1022.81 1022.94
1007.37 1007.26 1007.05 1006.80 1006.56 1006.41 1006.39 1006.56 1006.93 1007.50 1008.27 1009.18 1010.19 1011.24 1012.27 1013.23 1014.10 1014.86 1015.53 1016.12 1016.66 1017.16 1017.67 1018.17 1018.67 1019.16 1019.62 1020.02 1020.35 1020.60 1020.78 1020.89 1020.97 1021.05 1021.15 1021.31 1021.52 1021.79 1022.09 1022.41 1022.72 1022.98 1023.18 1023.32
1007.41 1007.27 1007.03 1006.73 1006.44 1006.23 1006.18 1006.34 1006.75 1007.40 1008.29 1009.36 1010.54 1011.77 1012.96 1014.07 1015.05 1015.89 1016.58 1017.16 1017.66 1018.11 1018.55 1018.98 1019.43 1019.87 1020.30 1020.68 1020.99 1021.24 1021.40 1021.51 1021.57 1021.61 1021.68 1021.79 1021.95 1022.17 1022.43 1022.71 1022.99 1023.24 1023.45 1023.60
1007.32 1007.20 1006.98 1006.69 1006.41 1006.22 1006.18 1006.37 1006.82 1007.54 1008.51 1009.68 1010.97 1012.31 1013.61 1014.81 1015.86 1016.74 1017.45 1018.02 1018.48 1018.87 1019.24 1019.61 1019.99 1020.38 1020.76 1021.11 1021.41 1021.64 1021.80 1021.89 1021.94 1021.97 1022.01 1022.09 1022.21 1022.39 1022.62 1022.87 1023.14 1023.39 1023.60 1023.77
1007.08 1007.00 1006.83 1006.62 1006.42 1006.30 1006.34 1006.60 1007.11 1007.89 1008.91 1010.12 1011.47 1012.85 1014.19 1015.42 1016.49 1017.37 1018.08 1018.62 1019.04 1019.39 1019.70 1020.00 1020.32 1020.66 1020.99 1021.31 1021.59 1021.81 1021.96 1022.06 1022.11 1022.14 1022.16 1022.22 1022.32 1022.48 1022.68 1022.93 1023.18 1023.44 1023.67 1023.86
1006.66 1006.63 1006.56 1006.47 1006.41 1006.44 1006.61 1006.97 1007.55 1008.38 1009.42 1010.64 1011.97 1013.34 1014.65 1015.86 1016.90 1017.76 1018.43 1018.94 1019.32 1019.62 1019.88 1020.14 1020.41 1020.70 1021.00 1021.29 1021.55 1021.77 1021.93 1022.04 1022.10 1022.14 1022.17 1022.23 1022.33 1022.49 1022.69 1022.93 1023.19 1023.46 1023.71 1023.94
1006.10 1006.14 1006.19 1006.26 1006.38 1006.59 1006.92 1007.41 1008.08 1008.95 1010.00 1011.19 1012.46 1013.75 1014.99 1016.12 1017.10 1017.90 1018.52 1018.99 1019.34 1019.60 1019.83 1020.04 1020.28 1020.54 1020.81 1021.09 1021.35 1021.57 1021.75 1021.88 1021.98 1022.05 1022.11 1022.19 1022.31 1022.48 1022.69 1022.95 1023.23 1023.53 1023.81 1024.06
1005.46 1005.58 1005.77 1006.02 1006.34 1006.75 1007.25 1007.88 1008.64 1009.55 1010.58 1011.71 1012.89 1014.07 1015.20 1016.22 1017.10 1017.83 1018.39 1018.82 1019.13 1019.37 1019.57 1019.78 1019.99 1020.24 1020.51 1020.79 1021.06 1021.30 1021.51 1021.69 1021.82 1021.94 1022.05 1022.17 1022.33 1022.53 1022.77 1023.06 1023.37 1023.69 1024.00 1024.29
1004.85 1005.06 1005.39 1005.82 1006.34 1006.94 1007.61 1008.36 1009.20 1010.12 1011.12 1012.17 1013.24 1014.29 1015.29 1016.18 1016.96 1017.60 1018.10 1018.49 1018.78 1019.01 1019.21 1019.42 1019.64 1019.89 1020.17 1020.46 1020.76 1021.04 1021.29 1021.51 1021.71 1021.88 1022.05 1022.23 1022.43 1022.67 1022.95 1023.27 1023.61 1023.96 1024.29 1024.60
1004.39 1004.68 1005.15 1005.74 1006.43 1007.19 1008.00 1008.85 1009.73 1010.65 1011.60 1012.55 1013.50 1014.42 1015.27 1016.05 1016.72 1017.28 1017.74 1018.09 1018.38 1018.62 1018.83 1019.06 1019.30 1019.57 1019.88 1020.20 1020.53 1020.85 1021.15 1021.43 1021.68 1021.92 1022.14 1022.37 1022.63 1022.91 1023.22 1023.56 1023.93 1024.30 1024.65 1024.96
1004.14 1004.53 1005.11 1005.84 1006.66 1007.54 1008.43 1009.34 1010.23 1011.12 1012.00 1012.85 1013.68 1014.46 1015.20 1015.86 1016.45 1016.96 1017.38 1017.73 1018.02 1018.28 1018.53 1018.78 1019.06 1019.37 1019.70 1020.06 1020.42 1020.78 1021.13 1021.46 1021.76 1022.05 1022.32 1022.60 1022.89 1023.20 1023.53 1023.89 1024.26 1024.63 1024.98 1025.29
1004.11 1004.60 1005.28 1006.11 1007.02 1007.96 1008.91 1009.82 1010.69 1011.53 1012.32 1013.07 1013.79 1014.47 1015.10 1015.69 1016.22 1016.69 1017.10 1017.46 1017.78 1018.07 1018.35 1018.65 1018.96 1019.30 1019.66 1020.04 1020.44 1020.83 1021.21 1021.57 1021.91 1022.23 1022.54 1022.84 1023.15 1023.47 1023.81 1024.16 1024.52 1024.88 1025.21 1025.49
1004.26 1004.85 1005.62 1006.52 1007.47 1008.44 1009.39 1010.27 1011.10 1011.86 1012.57 1013.23 1013.86 1014.45 1015.02 1015.55 1016.06 1016.52 1016.94 1017.33 1017.68 1018.01 1018.33 1018.66 1019.00 1019.35 1019.73 1020.13 1020.54 1020.95 1021.35 1021.73 1022.08 1022.42 1022.74 1023.04 1023.35 1023.66 1023.98 1024.31 1024.64 1024.97 1025.27 1025.52
1004.50 1005.19 1006.04 1006.98 1007.96 1008.92 1009.83 1010.67 1011.43 1012.12 1012.75 1013.34 1013.90 1014.44 1014.98 1015.50 1016.00 1016.48 1016.93 1017.35 1017.74 1018.10 1018.45 1018.80 1019.15 1019.51 1019.89 1020.28 1020.68 1021.08 1021.48 1021.85 1022.21 1022.54 1022.85 1023.14 1023.43 1023.71 1024.00 1024.29 1024.59 1024.87 1025.13 1025.35
1004.72 1005.52 1006.43 1007.41 1008.39 1009.33 1010.20 1010.98 1011.67 1012.30 1012.87 1013.41 1013.93 1014.46 1014.99 1015.52 1016.05 1016.56 1017.05 1017.50 1017.92 1018.31 1018.67 1019.02 1019.36 1019.70 1020.05 1020.42 1020.79 1021.17 1021.54 1021.90 1022.24 1022.55 1022.84 1023.11 1023.36 1023.61 1023.86 1024.11 1024.37 1024.61 1024.83 1025.03
1004.85 1005.75 1006.74 1007.75 1008.73 1009.64 1010.47 1011.19 1011.83 1012.40 1012.94 1013.45 1013.97 1014.50 1015.05 1015.62 1016.18 1016.74 1017.26 1017.75 1018.19 1018.58 1018.94 1019.26 1019.57 1019.87 1020.18 1020.50 1020.83 1021.17 1021.50 1021.83 1022.14 1022.43 1022.70 1022.94 1023.17 1023.39 1023.60 1023.81 1024.03 1024.23 1024.43 1024.60
1004.86 1005.87 1006.92 1007.96 1008.95 1009.84 1010.63 1011.32 1011.91 1012.46 1012.97 1013.48 1014.01 1014.56 1015.15 1015.76 1016.37 1016.97 1017.53 1018.03 1018.48 1018.87 1019.19 1019.48 1019.74 1019.99 1020.24 1020.50 1020.77 1021.06 1021.35 1021.64 1021.93 1022.20 1022.44 1022.67 1022.88 1023.07 1023.26 1023.45 1023.64 1023.82 1024.00 1024.17
1004.77 1005.88 1007.00 1008.08 1009.07 1009.96 1010.72 1011.38 1011.95 1012.47 1012.98 1013.50 1014.05 1014.64 1015.27 1015.92 1016.57 1017.20 1017.79 1018.31 1018.75 1019.11 1019.40 1019.64 1019.84 1020.02 1020.20 1020.40 1020.61 1020.85 1021.10 1021.36 1021.63 1021.88 1022.12 1022.34 1022.55 1022.74 1022.91 1023.09 1023.26 1023.43 1023.60 1023.77
1004.66 1005.85 1007.03 1008.15 1009.15 1010.02 1010.77 1011.41 1011.96 1012.48 1012.99 1013.51 1014.09 1014.71 1015.37 1016.06 1016.75 1017.40 1018.00 1018.52 1018.95 1019.29 1019.54 1019.73 1019.87 1019.98 1020.10 1020.23 1020.39 1020.58 1020.80 1021.03 1021.28 1021.54 1021.78 1022.01 1022.22 1022.41 1022.59 1022.77 1022.94 1023.11 1023.28 1023.45
1004.60 1005.86 1007.09 1008.22 1009.23 1010.09 1010.82 1011.44 1011.98 1012.48 1012.99 1013.52 1014.11 1014.75 1015.44 1016.15 1016.86 1017.53 1018.14 1018.66 1019.07 1019.39 1019.61 1019.75 1019.84 1019.90 1019.96 1020.04 1020.15 1020.30 1020.49 1020.71 1020.95 1021.20 1021.45 1021.69 1021.91 1022.13 1022.32 1022.50 1022.68 1022.85 1023.02 1023.19
1004.65 1005.95 1007.19 1008.33 1009.32 1010.17 1010.88 1011.47 1011.99 1012.48 1012.97 1013.51 1014.10 1014.75 1015.44 1016.16 1016.88 1017.56 1018.17 1018.69 1019.10 1019.40 1019.60 1019.71 1019.77 1019.80 1019.82 1019.85 1019.93 1020.04 1020.21 1020.41 1020.64 1020.89 1021.15 1021.41 1021.65 1021.87 1022.08 1022.28 1022.46 1022.63 1022.80 1022.97
1004.80 1006.11 1007.34 1008.46 1009.43 1010.25 1010.93 1011.49 1011.99 1012.45 1012.93 1013.45 1014.03 1014.67 1015.36 1016.08 1016.80 1017.48 1018.10 1018.62 1019.03 1019.33 1019.53 1019.63 1019.68 1019.69 1019.68 1019.70 1019.75 1019.84 1019.98 1020.16 1020.38 1020.63 1020.89 1021.15 1021.40 1021.64 1021.86 1022.06 1022.25 1022.42 1022.58 1022.74
1005.01 1006.29 1007.49 1008.58 1009.51 1010.29 1010.93 1011.47 1011.93 1012.37 1012.83 1013.32 1013.88 1014.51 1015.19 1015.90 1016.61 1017.29 1017.91 1018.44 1018.87 1019.18 1019.39 1019.51 1019.56 1019.57 1019.56 1019.56 1019.60 1019.67 1019.79 1019.95 1020.16 1020.39 1020.64 1020.90 1021.15 1021.39 1021.61 1021.82 1022.00 1022.17 1022.33 1022.48
1005.18 1006.41 1007.56 1008.60 1009.49 1010.23 1010.84 1011.34 1011.79 1012.21 1012.64 1013.12 1013.66 1014.26 1014.92 1015.61 1016.31 1016.99 1017.61 1018.15 1018.59 1018.93 1019.17 1019.31 1019.39 1019.42 1019.42 1019.43 1019.45 1019.51 1019.61 1019.76 1019.94 1020.15 1020.38 1020.62 1020.87 1021.10 1021.32 1021.52 1021.71 1021.88 1022.03 1022.17
1005.22 1006.38 1007.47 1008.45 1009.30 1010.01 1010.60 1011.09 1011.53 1011.94 1012.36 1012.82 1013.34 1013.93 1014.56 1015.23 1015.91 1016.58 1017.20 1017.75 1018.21 1018.58 1018.85 1019.03 1019.14 1019.20 1019.23 1019.25 1019.27 1019.33 1019.41 1019.53 1019.69 1019.87 1020.08 1020.30 1020.53 1020.75 1020.97 1021.17 1021.36 1021.53 1021.68 1021.82
1005.04 1006.12 1007.15 1008.09 1008.91 1009.61 1010.19 1010.70 1011.14 1011.56 1011.99 1012.45 1012.96 1013.52 1014.13 1014.77 1015.43 1016.07 1016.68 1017.23 1017.70 1018.09 1018.39 1018.62 1018.77 1018.87 1018.93 1018.97 1019.01 1019.07 1019.15 1019.25 1019.38 1019.55 1019.73 1019.93 1020.14 1020.35 1020.56 1020.76 1020.95 1021.12 1021.29 1021.44
Thickness
5688 5694 5695 5695 5699 5701 5695 5688 5677 5670 5660 5649 5640 5629 5620 5612 5605 5600 5595 5591 5586 5581 5577 5574 5572 5571 5570 5568 5568 5569 5569 5569 5568 5568 5568 5568 5569 5569 5570 5570 5570 5570 5570 5569
5684 5696 5699 5697 5701 5699 5695 5692 5684 5671 5655 5652 5640 5627 5615 5608 5602 5594 5588 5583 5578 5573 5569 5566 5564 5563 5561 5560 5559 5560 5560 5559 5559 5559 5559 5558 5559 5559 5560 5560 5560 5559 5558 5556
5669 5688 5689 5679 5693 5693 5693 5692 5683 5666 5654 5645 5633 5623 5614 5606 5598 5590 5583 5576 5570 5565 5561 5558 5557 5555 5554 5552 5552 5552 5551 5551 5551 5551 5551 5551 5551 5550 5550 5550 5550 5549 5546 5544
5668 5672 5654 5681 5705 5700 5690 5686 5682 5667 5654 5644 5630 5619 5610 5603 5593 5584 5576 5569 5563 5558 5554 5551 5549 5548 5547 5546 5545 5544 5544 5544 5543 5543 5543 5542 5542 5541 5541 5540 5540 5539 5538 5535
5664 5658 5664 5679 5691 5691 5679 5671 5675 5660 5645 5634 5622 5608 5597 5593 5586 5577 5570 5563 5557 5552 5548 5545 5544 5543 5542 5540 5539 5538 5538 5537 5536 5536 5536 5534 5533 5533 5533 5532 5532 5531 5530 5528
5666 5653 5648 5665 5688 5694 5682 5657 5666 5656 5642 5630 5620 5606 5590 5584 5578 5569 5562 5556 5551 5547 5543 5541 5539 5539 5537 5535 5534 5533 5532 5531 5530 5529 5529 5528 5526 5526 5526 5526 5525 5524 5522 5520
5667 5660 5659 5678 5690 5689 5660 5650 5660 5653 5642 5630 5623 5613 5594 5581 5572 5564 5557 5551 5547 5543 5540 5538 5536 5535 5533 5531 5529 5529 5528 5526 5525 5524 5523 5522 5520 5520 5520 5519 5518 5517 5515 5512
5671 5658 5652 5682 5684 5670 5662 5667 5661 5651 5639 5626 5614 5601 5588 5576 5567 5559 5552 5547 5544 5541 5537 5534 5533 5531 5529 5526 5525 5524 5522 5521 5520 5519 5519 5517 5515 5514 5514 5513 5512 5510 5508 5506
5671 5666 5675 5681 5677 5675 5672 5662 5654 5643 5631 5618 5606 5593 5582 5572 5563 5556 5550 5545 5541 5538 5534 5531 5529 5527 5524 5522 5521 5519 5517 5516 5515 5514 5512 5511 5510 5509 5509 5508 5507 5506 5504 5501
5678 5675 5679 5679 5677 5673 5667 5657 5648 5637 5626 5615 5601 5589 5578 5569 5560 5552 5547 5543 5539 5536 5532 5528 5526 5524 5521 5519 5517 5515 5512 5510 5509 5508 5507 5506 5505 5505 5503 5502 5501 5500 5499 5496
5677 5676 5676 5673 5670 5665 5659 5650 5640 5630 5620 5609 5597 5585 5576 5566 5558 5551 5546 5541 5537 5533 5529 5525 5523 5520 5518 5516 5513 5510 5508 5507 5506 5505 5502 5499 5495 5492 5491 5487 5487 5490 5490 5489
5677 5679 5674 5664 5665 5660 5650 5641 5633 5623 5612 5602 5594 5583 5573 5564 5556 5550 5544 5538 5534 5530 5527 5523 5520 5516 5514 5511 5509 5507 5506 5505 5504 5502 5499 5497 5493 5487 5482 5482 5480 5481 5480 5480
5689 5686 5677 5668 5663 5656 5646 5637 5628 5618 5608 5598 5589 5581 5572 5563 5555 5549 5543 5537 5533 5529 5525 5520 5516 5513 5510 5508 5506 5505 5504 5503 5503 5501 5499 5496 5493 5489 5484 5479 5477 5477 5477 5476
5687 5679 5667 5661 5655 5650 5641 5633 5624 5614 5605 5596 5588 5579 5571 5563 5555 5549 5543 5538 5533 5528 5523 5518 5513 5510 5508 5506 5505 5503 5502 5500 5500 5499 5498 5496 5494 5492 5489 5486 5482 5480 5476 5475
5680 5675 5666 5659 5651 5644 5636 5628 5618 5609 5601 5594 5587 5579 5571 5563 5556 5550 5545 5539 5534 5528 5522 5517 5513 5509 5508 5506 5504 5503 5502 5501 5500 5500 5499 5497 5496 5495 5492 5489 5487 5484 5481 5478
5675 5669 5662 5653 5646 5640 5633 5626 5617 5609 5602 5595 5588 5580 5573 5565 5559 5552 5547 5541 5535 5529 5524 5519 5515 5511 5509 5506 5504 5503 5501 5498 5499 5500 5500 5498 5497 5496 5494 5491 5490 5488 5486 5485
5670 5662 5656 5649 5644 5639 5633 5627 5619 5612 5605 5597 5590 5583 5575 5567 5560 5554 5549 5544 5538 5532 5528 5523 5518 5515 5512 5509 5507 5506 5505 5501 5499 5500 5501 5500 5499 5498 5496 5495 5493 5492 5490 5488
5674 5668 5661 5654 5647 5640 5634 5628 5621 5614 5607 5600 5593 5585 5577 5570 5563 5557 5552 5546 5540 5535 5531 5527 5523 5520 5516 5513 5512 5512 5510 5508 5505 5504 5504 5502 5501 5500 5500 5498 5497 5496 5493 5491
5675 5668 5662 5656 5650 5643 5637 5630 5623 5617 5610 5603 5596 5588 5581 5574 5568 5562 5556 5551 5545 5539 5535 5532 5526 5524 5521 5518 5516 5516 5515 5513 5510 5509 5507 5503 5503 5504 5503 5502 5501 5500 5500 5498
5674 5669 5663 5657 5652 5645 5638 5632 5626 5619 5612 5606 5598 5591 5584 5578 5572 5566 5560 5555 5551 5547 5541 5535 5531 5529 5526 5523 5519 5522 5521 5519 5516 5514 5512 5510 5509 5508 5507 5506 5505 5504 5503 5502
5674 5669 5663 5658 5652 5646 5640 5634 5628 5621 5615 5609 5601 5594 5588 5582 5577 5571 5565 5560 5556 5551 5545 5538 5537 5535 5532 5530 5524 5528 5528 5525 5522 5520 5518 5516 5514 5513 5511 5510 5509 5508 5507 5505
5674 5669 5664 5659 5653 5647 5641 5636 5630 5624 5617 5611 5605 5599 5592 5586 5581 5576 5572 5568 5561 5555 5550 5546 5544 5542 5539 5535 5535 5536 5535 5532 5529 5526 5524 5522 5519 5517 5516 5514 5513 5512 5511 5509
5674 5670 5666 5660 5654 5648 5642 5637 5632 5626 5620 5615 5609 5603 5597 5592 5587 5582 5577 5573 5568 5560 5558 5556 5551 5546 5543 5540 5542 5544 5543 5539 5536 5533 5530 5527 5526 5523 5521 5519 5518 5517 5515 5513
5673 5669 5665 5661 5655 5648 5642 5638 5634 5629 5624 5619 5614 5608 5602 5597 5593 5591 5588 5579 5573 5565 5564 5560 5554 5550 5546 5547 5547 5549 5548 5545 5542 5539 5537 5535 5533 5530 5528 5525 5523 5521 5519 5517
5672 5669 5664 5660 5654 5650 5645 5641 5636 5631 5627 5623 5618 5613 5609 5605 5601 5599 5594 5586 5577 5570 5567 5559 5558 5554 5553 5553 5553 5555 5554 5552 5549 5547 5544 5541 5539 5537 5534 5531 5529 5526 5524 5522
5670 5667 5664 5660 5658 5654 5651 5645 5640 5636 5632 5628 5623 5619 5615 5612 5609 5605 5598 5591 5584 5577 5575 5568 5563 5559 5559 5559 5559 5560 5559 5556 5553 5550 5548 5546 5544 5542 5540 5537 5534 5531 5528 5526
5668 5666 5662 5661 5659 5658 5655 5651 5646 5642 5639 5635 5630 5625 5622 5618 5614 5610 5604 5597 5591 5585 5582 5579 5574 5570 5568 5567 5566 5565 5564 5562 5559 5556 5553 5551 5548 5546 5544 5541 5538 5535 5532 5529